Find OneWeb SL0664

NORAD ID: 55824 Int'l Des: 2023-029 Owner: ONEWEBN Country: UK Constellation: oneweb operational
LEOCIRCULARPOLARONEWEB_TYPE

实时位置

正在加载3D地球...

关于 OneWeb SL0664

正在加载描述...

即将过境

Passes for default location (London). Set your location on the main map for personalized predictions.

高度历史

Loading altitude history...

两行轨道根数

1 55824U 23029AE 26106.75270293 .00000108 00000-0 23375-3 0 9992
2 55824 87.9125 286.7523 0002117 103.2290 256.9079 13.20769299153037
Epoch: Apr 16, 2026 • Age: 17 hours

当前状态

高度 1184.0 km
速度 7.26 km/s
星下点 2.63°N, 91.07°E
发射日期 Mar 9, 2023
运行时间 3.1 years
类型 internet

技术详情

分类 Payload
质量 148.00 kg
干质量 140.00 kg
总质量 148.00 kg
长度 1.30 m
直径 1.00 m
跨度 5.00 m
形状 Trapezoid+2 pan
制造商 ONEWUS
平台类型 ARROW
阶段状态 In Orbit
所有者/国家 ONEWEBN/UK

Most Searched